STARLINK-34141 (64020 NORAD) Tracking and Keplerian Element Data

This shows tracking and keplerian element data for the satellite.

Feedback or suggestion? Click here.




ElementValue
Catalog64020
NameSTARLINK-34141
Epoch Orbit3486
Epoch Day353.97942674
Epoch Year2025
RAAN88.2016
Inclination43.0022
Eccentricity3.4E-05
Argument of Perigee309.7886
Mean Anonmoly50.2936
Mean Motion15.27573278
Decay Rate0.00020088
L11 64020U 25101AC 25353.97942674 .00020088 00000+0 73768-3 0 9998
L22 64020 43.0022 88.2016 0000340 309.7886 50.2936 15.27573278 34861



Live tracking and technical data element details for STARLINK-34141 (NORAD 64020). STARLINK-34141 can be tracked NOW for your location showing map with azimuth and elevation plus other details from your city location.







IsCatalogInMostPopularTable: catalog: 64020, numindb: 2
Update: records affected: 1



GetName: 64020 STARLINK-34141

Hit Count: updated at: Sun, 08 Feb 2026 16:48:22 GMT